Regional Weather Roundup
Issued by NWS

Home | Current Version | Previous Version | Text Only | Print | Product List | Glossary On
Versions: 1 2 3 4 5 6 7 8 9 10 11 12 13 14 15 16 17 18 19 20 21 22 23 24 25 26 27 28 29 30 31 32 33 34 35 36 37 38 39 40 41 42 43 44 45 46 47 48 49 50
000
ASUS46 KLOX 061813
RWRCA

SOUTHERN CALIFORNIA WEATHER ROUNDUP
NATIONAL WEATHER SERVICE OXNARD CALIFORNIA
1100 AM PDT FRI MAY 06 2016

NOTE: "FAIR" INDICATES FEW OR NO CLOUDS BELOW 12,000 FEET WITH NO
SIGNIFICANT WEATHER AND/OR OBSTRUCTIONS TO VISIBILITY.

  -  STATIONS PRECEEDED BY AN ASTERISK (*) ARE NOT NWS OR FAA
     STATIONS AND ARE NOT SUBJECT TO NWS AND FAA QUALITY CONTROL.

CAZ041-042-087-061900-
LA AND ORANGE COUNTY COASTAL AREAS


CITY           SKY/WX    TMP DP  RH WIND       PRES   REMARKS
L.A. DOWNTOWN  CLOUDY    64  51  62 CALM      29.89R
L.A. AIRPORT   PTSUNNY   63  52  67 W13       29.90R
LONG BEACH     CLOUDY    61  53  75 S9        29.91R

CITY           SKY/WX    TMP DP  RH WIND       PRES   REMARKS
AVALON           N/A     59 N/A N/A MISG        N/A
FULLERTON      CLOUDY    60  54  80 S9        29.90R
HAWTHORNE      CLOUDY    62  52  69 SW9       29.90R
*LOS ALAMITOS  CLOUDY    60  56  87 SE8       29.91R
*REDONDO BEACH   N/A     65  54  68 SW3       29.90R
SANTA ANA      LGT RAIN  59  55  87 S6        29.91R
STA MONICA APT PTSUNNY   64  50  60 SW10      29.90R
*UCLA            N/A     63  48  59 SW12      29.87R

$$

CAZ547-548-048-061900-
LA COUNTY VALLEYS AND INLAND EMPIRE


CITY           SKY/WX    TMP DP  RH WIND       PRES   REMARKS
BURBANK        CLOUDY    61  49  64 S9        29.88R
VAN NUYS       CLOUDY    63  47  55 SW6       29.88R

CITY           SKY/WX    TMP DP  RH WIND       PRES   REMARKS
CORONA AIRPORT CLOUDY    62  49  62 SW6       29.90R
*CHATSWORTH      N/A     57  51  80 N3        29.91R
CHINO          CLOUDY    60  52  74 SW15      29.91R
MARCH AFB      LGT RAIN  53  48  83 S6        29.90R
*NORTHRIDGE      N/A     63  46  55 SW3G12      N/A
ONTARIO        CLOUDY    61  47  59 SW15      29.89R
*PASADENA        N/A     64  52  63 E5          N/A
POMONA         CLOUDY    59  50  72 W9        29.92R
RIVERSIDE      CLOUDY    64  47  53 SW8       29.89R
SAN BERNARDINO CLOUDY    63  48  59 NW5       29.89
*SAN GABRIEL     N/A     63  54  73 SE3       29.96S
*WHITEMAN AP   PTSUNNY   63  45  51 E8        29.91
*WOODLAND HILL   N/A     63  46  55 NE2         N/A

$$

CAZ054-055-061900-
LA AND SAN BERNARDINO COUNTY MOUNTAINS


CITY           SKY/WX    TMP DP  RH WIND       PRES   REMARKS
*BIG BEAR AIRP LGT SNOW  39  32  75 N6        29.90R WCI  35
SANDBERG       RAIN      45  41  86 N7        29.91R FOG
*WARM SPRINGS    N/A     52  37  57 CALM        N/A

$$

CAZ028-029-059-060-099-061900-
ANTELOPE VALLEY AND SURROUNDING AREAS


CITY           SKY/WX    TMP DP  RH WIND       PRES   REMARKS
LANCASTER      SUNNY     63  40  42 SW16G23   29.85S
PALMDALE       PTSUNNY   61  38  42 SW12      29.86S

CITY           SKY/WX    TMP DP  RH WIND       PRES   REMARKS
29 PALMS       PTSUNNY   66  34  30 CALM      29.89S
BARSTOW/DAGGET MOSUNNY   68  37  32 W16G23    29.82S
BISHOP         MOSUNNY   60  40  47 VRB5      29.81F
CHINA LAKE     MOSUNNY   63  39  41 SW7       29.80S
EDWARDS AFB    PTSUNNY   64  38  38 SW13      29.82S
MOJAVE         MOSUNNY   61  37  41 VRB7      29.84S
NEEDLES        PTSUNNY   73  38  27 S14       29.81R
VICTORVILLE    MOSUNNY   61  37  41 CALM      29.86S

$$

CAZ039-040-061900-
VENTURA AND SANTA BARBARA COUNTY COAST


CITY           SKY/WX    TMP DP  RH WIND       PRES   REMARKS
CAMARILLO      CLOUDY    65  51  60 SW8       29.88R
NWS OXNARD       N/A     64  51  63 W5        29.88R
OXNARD AIRPORT MOSUNNY   63  53  70 SW7       29.89R
*POINT MUGU    MOSUNNY   65  54  67 SW9       29.90R
SBA APT/GOLETA MOSUNNY   63  54  72 VRB6      29.88R
*SANTA BARBARA   N/A     65  54  65 N5        29.96S

$$

CAZ044-045-061900-
VENTURA COUNTY VALLEYS


CITY           SKY/WX    TMP DP  RH WIND       PRES   REMARKS
*SIMI VALLEY     N/A     63  50  63 CALM      29.85F
*WESTLAKE VILL   N/A     60  52  76 CALM      29.89R
*OJAI            N/A     63  53  71 CALM      29.84R
*FILLMORE        N/A     68  52  56 CALM      29.77S

$$

CAZ053-061900-
VENTURA COUNTY MOUNTAINS


CITY           SKY/WX    TMP DP  RH WIND       PRES   REMARKS
*LOCKWOOD VLY    N/A     48  36  61 MISG        N/A
*ROSE VALLEY     N/A     54  48  82 MISG        N/A

$$

CAZ034-035-036-061900-
CENTRAL COAST AND SANTA YNEZ VALLEY


CITY           SKY/WX    TMP DP  RH WIND       PRES   REMARKS
SAN LUIS OBISP PTSUNNY   67  51  56 NW6       29.88R
SANTA MARIA    PTSUNNY   65  51  60 VRB7      29.89R

CITY           SKY/WX    TMP DP  RH WIND       PRES   REMARKS
*CAL POLY SLO    N/A     64  54  68 SW5         N/A
*LOMPOC          N/A     68  49  50 MISG        N/A
*PISMO BEACH     N/A     60  56  88 W5        29.90S
*SANTA YNEZ    FAIR      66  45  45 CALM      29.87S

$$

CAZ037-038-051-061900-
SAN LUIS OBISPO COUNTY INTERIOR AND CUYAMA VALLEY


CITY           SKY/WX    TMP DP  RH WIND       PRES   REMARKS
*CUYAMA          N/A     57  48  71 NE3       29.83S
PASO ROBLES    MOSUNNY   66  50  56 VRB6      29.88S

$$

CAZ032-033-061-061900-
SOUTHERN DESERTS


CITY           SKY/WX    TMP DP  RH WIND       PRES   REMARKS
BLYTHE         SUNNY     75  42  30 SW16G24   29.82R
IMPERIAL       PTSUNNY   73  43  33 S5G18     29.83S
PALM SPRINGS   MOSUNNY   73  42  32 S7        29.83S
THERMAL        PTSUNNY   74  39  28 CALM      29.79S

$$

ELSEWHERE ACROSS THE WESTERN UNITED STATES AND MEXICO


CITY           SKY/WX    TMP DP  RH WIND       PRES   REMARKS
DENVER, CO     CLOUDY    75  34  22 CALM      29.97F
GRAND CANYON,  MOSUNNY   59  19  21 S16G32    29.93S
HONOLULU, HI   PTSUNNY   79  70  73 VRB5      30.05S
KAHULUI, MAUI  MOSUNNY   79  68  69 CALM      30.06R
LAKE TAHOE, CA CLOUDY    43  37  79 VRB6      29.88R
LAS VEGAS, NV  PTSUNNY   65  44  46 N10       29.77S
MAMMOTH LAKES, FAIR      48  37  65 NE7       29.88S
MEXICO CITY, M MOSUNNY   77  43  29 CALM      30.35F
PHOENIX, AZ    PTSUNNY   74  44  34 S12G31    29.85S
PORTLAND, OR   MOSUNNY   68  50  52 VRB7      30.00F
RENO, NV       PTSUNNY   56  41  57 CALM      29.87R
SALT LAKE CITY LGT RAIN  70  42  36 E23G30    29.79S
SAN DIEGO, CA  CLOUDY    61  54  77 S6        29.95R
SAN FRANCISCO, CLOUDY    56  54  93 SW7       29.87F
SAN JOSE, CA   LGT RAIN  60  52  74 NW7       29.87R
SEATTLE, WA    MOSUNNY   66  44  45 NE10      30.08F
TIJUANA, MEX   LGT RAIN  59  52  77 S3        29.98R

$$

STATION/POSITION TIME  TEMP    WIND        PRES    VSBY  WAVE
                       AIR SEA DIR/SP/G                  HT/PER
                 (UTC) (F)     (DEG/KT/KT) (MB)    (MI)  (FT/S)
POINT ARGUELLO B NOT AVBL
WEST SANTA BARBA 1750   57 59  280/  4/  6 1011.7R         5/10
POINT CONCEPTION NOT AVBL
EAST SANTA BARBA 1700   57 57  210/  6/  8 1012.3R
SANTA MONICA BAY 1750   59 61  250/  4/  4 1012.7R         2/14



USA.gov is the U.S. government's official web portal to all federal, state and local government web resources and services.